Regional Weather Roundup
Issued by NWS Upton, NY

Current Version | Previous Version | Graphics & Text | Print | Product List | Glossary Off
Versions: 1 2 3 4 5 6 7 8 9 10 11 12 13 14 15 16 17 18 19 20 21 22 23 24 25 26 27

000
ASUS41 KOKX 190609
RWROKX

REGIONAL WEATHER ROUNDUP
NATIONAL WEATHER SERVICE NEW YORK NY
200 AM EDT THU OCT 19 2017

NOTE: "FAIR" INDICATES FEW OR NO CLOUDS BELOW 12,000 FEET WITH NO
SIGNIFICANT WEATHER AND/OR OBSTRUCTIONS TO VISIBILITY.

NYZ071-072-176-178-NJZ106-104-190700-
NEW YORK CITY METRO AREA

CITY           SKY/WX    TMP DP  RH WIND       PRES   REMARKS
Central Park   CLEAR     60  45  57 VRB5      30.29F
Bronx Bot Gard   N/A     59  45  58 W8        30.26F
LaGuardia APRT CLEAR     62  46  55 SW8       30.26F
Kennedy INTL   CLEAR     55  51  86 SW6       30.28F
Breezy Point     N/A     57 N/A N/A SW7         N/A
Newark/Liberty CLEAR     55  46  71 SW7       30.27F
Teterboro      CLEAR     54  47  77 CALM      30.26F
$$

NYZ177-179-078>081-190700-
LONG ISLAND NEW YORK

CITY           SKY/WX    TMP DP  RH WIND       PRES   REMARKS
Jones Beach      N/A     61 N/A N/A W8          N/A
Matinecock PT    N/A     61 N/A N/A SW12        N/A
Farmingdale    CLEAR     54  50  86 CALM      30.28S
MacArthur/ISP  CLEAR     53  52  96 SW5       30.27S
Shirley        CLEAR     53  50  89 SW3       30.28S
Mt Sinai Harb    N/A    N/A N/A N/A SW6         N/A
Westhampton    FOG       42  40  92 CALM      30.29S VSB 1/4
East Hampton   FAIR      44  42  95 CALM      30.27S
Montauk          N/A     60  59  96 SW3       30.28F
$$

NYZ052-065-067-190700-
HUDSON VALLEY

CITY           SKY/WX    TMP DP  RH WIND       PRES   REMARKS
White Plains   CLEAR     51  46  83 W3        30.25F
Larchmont Harb   N/A     59 N/A N/A CALM        N/A
Croton On Huds   N/A     54 N/A N/A MISG        N/A
Newburgh       CLEAR     50  46  87 CALM      30.26F
Montgomery     CLEAR     45  43  93 CALM      30.25S
Poughkeepsie   CLEAR     45  43  93 CALM      30.24S
Albany         CLEAR     51  45  79 SW3       30.22S
$$

NJZ001-105-106-008-010-013-015-019>022-104-190700-
NEW JERSEY

CITY           SKY/WX    TMP DP  RH WIND       PRES   REMARKS
Newark/Liberty CLEAR     55  46  71 SW7       30.27F
Teterboro      CLEAR     54  47  77 CALM      30.26F
Caldwell       CLEAR     48  48 100 CALM      30.28S
Somerville     CLEAR     43  43 100 CALM      30.27S
Linden         FAIR      55  46  71 CALM      30.28S
Perth Amboy      N/A     54 N/A N/A W3          N/A
Sussex         CLEAR     43  42  97 CALM      30.26F
Andover          N/A     43  43 100 S3        30.27F
Trenton        CLEAR     49  47  93 CALM      30.28F
Millville      CLEAR     45  44  97 CALM      30.30F FOG
Atlantic City  CLEAR     48  45  89 CALM      30.30F
Wrightstown    CLEAR     47  45  92 CALM      30.27S
Toms River       N/A     44  42  93 CALM      30.30F
Belmar         CLEAR     53  47  79 SW6       30.30S
$$

PAZ047>061-062-071-190700-
EASTERN PENNSYLVANIA

CITY           SKY/WX    TMP DP  RH WIND       PRES   REMARKS
Philadelphia   PTCLDY    56  47  71 SW8       30.30S
Allentown      CLEAR     46  42  86 CALM      30.27F
Scranton       CLEAR     47  43  86 E3        30.25F
$$

CTZ002-004>006-009-010-012-RIZ004-006-007-MAZ004-011-015-190700-
SOUTHERN NEW ENGLAND
 IN CT

CITY           SKY/WX    TMP DP  RH WIND       PRES   REMARKS
Bradley INTL   CLEAR     45  44  97 CALM      30.25F
Hartford       FOG       48  46  93 CALM      30.26S VSB 1/4
Danbury        CLEAR     44  42  93 CALM      30.27F
Wtrbury/Oxford CLEAR     47  46  97 CALM      30.27S
Norwalk Harbor   N/A     54 N/A N/A NW3         N/A
Bridgeport     CLEAR     52  49  89 CALM      30.26S
Meriden        CLEAR     44  42  93 CALM      30.26F
New Haven      CLEAR     47  45  93 CALM      30.27S
Chester        FAIR      54  54 100 CALM      30.27S
Groton         CLEAR     49  47  93 CALM      30.26F
Wilimantic     CLEAR     43  42  97 CALM      30.28S

 IN RI

CITY           SKY/WX    TMP DP  RH WIND       PRES   REMARKS
Providence     CLEAR     49  49 100 CALM      30.28R
Block Island   CLEAR     57  56  96 SW6       30.28S
Westerly       CLEAR     46  44  93 CALM      30.28S
 IN MA

CITY           SKY/WX    TMP DP  RH WIND       PRES   REMARKS
Boston         CLEAR     53  47  79 SW9       30.25S
Worcester      CLEAR     51  44  77 W7        30.25S
Westfield      CLEAR     43  42  97 CALM      30.25S
Provincetown   CLEAR     56  55  97 S6        30.27S
Nantucket      CLEAR     55  55 100 SW6       30.29S
$$

ANZ330-335-338-340-345-350-353-355-190700-
COASTAL MARINE OBSERVATIONS


STATION/POSITION TIME  SKY/WX   TEMP    WIND        PRES    VSBY  WAVE
                                AIR SEA DIR/SP/G                  HT/PER
                 (UTC)          (F)     (DEG/KT/KT) (MB)    (MI)  (FT/S)
NY HARB ENTRANCE 0550            62 65  230/ 12/ 16 1024.6          3/10
20 S FIRE ISLAND 0550            64 64  250/ 14/ 16 1025.5          3/ 9
GREAT SOUTH BAY  0530            62 62  260/  8/ 10   N/A
15 E BARNEGAT LI 0530               66                N/A           3/10
HUDSON CANYON    0550            64 65  230/ 10/ 12 1025.5          3/10
KINGS POINT      0548               66  220/  6/  8 1025.6
EXECUTION ROCKS  0530            64     190/ 10/ 12   N/A
WESTERN LI SOUND 0449            64     230/ 12/ 16   N/A           1
CENTRAL LI SOUND 0515            65     230/ 12/ 14   N/A           2
EASTERN LI SOUND NOT AVBL
ROBBINS REEF     0548                   260/ 11/ 13 1025.5
$$


>>>>>>>>>>>>>>>>>>>>>>>>>>>> KEY <<<<<<<<<<<<<<<<<<<<<<<<<<<
>                                                          <
>     SKY/WX - Sky Condition/Present Weather               <
>     TMP    - Temperature in Fahrenheit                   <
>     DP     - Dew Point in Fahrenheit                     <
>     RH     - Relative Humidity in Percent                <
>     WIND   - Direction (from) and Speed in MPH           <
>     PRES   - Mean Sea Level Pressure (inches of Hg)      <
>     WCI    - Wind Chill Index                            <
>     VSB    - VISIBILITY IN MILES                         <
>     HX     - HEAT INDEX                                  <
>     TC     - TEMPERATURE IN CELSIUS                      <
>     VRB    - VARIABLE WIND DIRECTION                     <
>                                                          <
>>>>>>>>>>>>>>>>>>>>>>>>>>>> KEY <<<<<<<<<<<<<<<<<<<<<<<<<<<




USA.gov is the U.S. government's official web portal to all federal, state and local government web resources and services.